User: anonymous   Login
Location: Nag� el Ma?a??a
(24.0667°N, 32.8833°E)
Time: 21:50:31
(UTC+00:00)
Language:

SJ 16-02 - Orbit

View from above orbital plane
View from above orbital plane
View from above satellite
View from above satellite

Ground track
Ground track

The orbit data is extracted from the following two-line orbital elements,

1 41634U 16043A   21337.44743919  .00000210  00000-0  27195-4 0  9990
2 41634  75.0020 154.1476 0006905  94.1205 266.0774 14.85889980294549
Epoch (UTC): 03 December 2021 10:44:18
Eccentricity: 0.0006905
inclination: 75.0020°
perigee height: 606 km
apogee height: 615 km
right ascension of ascending node: 154.1476°
argument of perigee: 94.1205°
revolutions per day: 14.85889980
mean anomaly at epoch: 266.0774°
orbit number at epoch: 29454

The dashed part of the orbit path shows where the satellite is in the earth's shadow,  

DLR